| time (UTC) | temp F | wind direction | speed MPH | gust MPH | rain 1hr in | rain 24hr in | rain mn in | humidity % | barometer mb |
| 20260506232318 | 51 | 295 | 4.0 | 7.0 | 0.00 | 0.17 | 0.17 | 99 | 1003.0 |
| 20260506231815 | 51 | 9 | 4.0 | 5.0 | 0.00 | 0.17 | 0.17 | 99 | 1003.0 |
| 20260506231313 | 51 | 56 | 1.0 | 5.0 | 0.00 | 0.17 | 0.17 | 99 | 1003.2 |
| 20260506230810 | 51 | 355 | 3.0 | 3.0 | 0.00 | 0.17 | 0.17 | 99 | 1003.3 |
| 20260506230307 | 51 | 359 | 3.0 | 6.0 | 0.00 | 0.17 | 0.17 | 99 | 1003.1 |
| 20260506225803 | 51 | 23 | 2.0 | 3.0 | 0.00 | 0.17 | 0.17 | 99 | 1003.3 |
| 20260506225300 | 51 | 64 | 4.0 | 6.0 | 0.00 | 0.17 | 0.17 | 99 | 1003.1 |
| 20260506224756 | 51 | 314 | 2.0 | 3.0 | 0.00 | 0.17 | 0.17 | 99 | 1003.2 |
| 20260506224254 | 51 | 329 | 3.0 | 5.0 | 0.00 | 0.17 | 0.17 | 99 | 1003.3 |
| 20260506223749 | 51 | 30 | 3.0 | 5.0 | 0.00 | 0.17 | 0.17 | 99 | 1003.3 |
| 20260506223240 | 52 | 319 | 1.0 | 1.0 | 0.00 | 0.17 | 0.17 | 99 | 1003.3 |
| 20260506222737 | 52 | 356 | 1.0 | 2.0 | 0.05 | 0.17 | 0.17 | 99 | 1003.5 |
| 20260506222233 | 52 | 47 | 4.0 | 8.0 | 0.05 | 0.17 | 0.17 | 99 | 1003.5 |
| 20260506221731 | 52 | 343 | 2.0 | 2.0 | 0.00 | 0.16 | 0.16 | 99 | 1003.4 |
| 20260506221229 | 52 | 323 | 2.0 | 3.0 | 0.07 | 0.16 | 0.16 | 99 | 1003.2 |
| 20260506220726 | 52 | 315 | 1.0 | 2.0 | 0.07 | 0.16 | 0.16 | 99 | 1003.5 |
| 20260506220220 | 52 | 276 | 3.0 | 5.0 | 0.00 | 0.15 | 0.15 | 99 | 1003.5 |
| 20260506215717 | 52 | 3 | 3.0 | 3.0 | 0.05 | 0.15 | 0.15 | 99 | 1003.7 |
| 20260506215213 | 52 | 1 | 2.0 | 3.0 | 0.17 | 0.15 | 0.15 | 99 | 1003.8 |
| 20260506214710 | 52 | 285 | 5.0 | 6.0 | 0.12 | 0.14 | 0.14 | 99 | 1003.8 |
| 20260506214207 | 53 | 2 | 3.0 | 5.0 | 0.12 | 0.13 | 0.13 | 99 | 1003.8 |
| 20260506213705 | 53 | 38 | 5.0 | 7.0 | 0.12 | 0.12 | 0.12 | 99 | 1003.7 |
| 20260506213203 | 52 | 333 | 1.0 | 2.0 | 0.05 | 0.11 | 0.11 | 99 | 1003.7 |
| 20260506212659 | 52 | 4 | 3.0 | 5.0 | 0.05 | 0.11 | 0.11 | 99 | 1003.9 |
| 20260506212155 | 52 | 336 | 2.0 | 3.0 | 0.07 | 0.10 | 0.10 | 99 | 1003.8 |
| 20260506211650 | 52 | 293 | 3.0 | 3.0 | 0.12 | 0.09 | 0.09 | 99 | 1004.2 |
| 20260506211147 | 53 | 339 | 3.0 | 5.0 | 0.12 | 0.09 | 0.09 | 99 | 1003.9 |
| 20260506210644 | 53 | 357 | 3.0 | 5.0 | 0.07 | 0.07 | 0.07 | 99 | 1004.0 |
| 20260506210141 | 53 | 329 | 3.0 | 5.0 | 0.07 | 0.07 | 0.07 | 99 | 1004.0 |
| 20260506205638 | 53 | 327 | 0.0 | 1.0 | 0.00 | 0.06 | 0.06 | 99 | 1004.0 |
| 20260506205132 | 53 | 52 | 5.0 | 6.0 | 0.00 | 0.06 | 0.06 | 99 | 1003.9 |
| 20260506204631 | 53 | 350 | 2.0 | 3.0 | 0.05 | 0.06 | 0.06 | 99 | 1004.2 |
| 20260506204127 | 53 | 44 | 3.0 | 5.0 | 0.00 | 0.05 | 0.05 | 98 | 1004.1 |
| 20260506203626 | 54 | 338 | 1.0 | 2.0 | 0.00 | 0.05 | 0.05 | 98 | 1003.9 |
| 20260506203122 | 54 | 10 | 1.0 | 2.0 | 0.00 | 0.05 | 0.05 | 98 | 1004.2 |
| 20260506202620 | 54 | 313 | 0.0 | 0.0 | 0.00 | 0.05 | 0.05 | 98 | 1004.1 |
| 20260506202116 | 54 | 305 | 1.0 | 1.0 | 0.00 | 0.05 | 0.05 | 98 | 1004.0 |
| 20260506201613 | 54 | 330 | 1.0 | 1.0 | 0.00 | 0.05 | 0.05 | 98 | 1004.1 |
| 20260506201110 | 55 | 310 | 1.0 | 2.0 | 0.00 | 0.05 | 0.05 | 98 | 1004.1 |
| 20260506200606 | 55 | 313 | 2.0 | 2.0 | 0.07 | 0.05 | 0.05 | 98 | 1003.9 |
| 20260506195559 | 55 | 317 | 1.0 | 2.0 | 0.00 | 0.04 | 0.04 | 98 | 1004.3 |
| 20260506195056 | 55 | 311 | 1.0 | 1.0 | 0.05 | 0.04 | 0.04 | 98 | 1004.3 |
| 20260506194554 | 55 | 320 | 0.0 | 1.0 | 0.05 | 0.04 | 0.04 | 98 | 1004.5 |
| 20260506194050 | 55 | 304 | 3.0 | 5.0 | 0.07 | 0.03 | 0.03 | 98 | 1004.7 |
| 20260506193548 | 55 | 314 | 0.0 | 0.0 | 0.12 | 0.03 | 0.03 | 97 | 1004.6 |
| 20260506193045 | 55 | 311 | 0.0 | 0.0 | 0.05 | 0.02 | 0.02 | 96 | 1005.0 |
| 20260506192541 | 55 | 353 | 5.0 | 7.0 | 0.00 | 0.01 | 0.01 | 96 | 1005.1 |
| 20260506192037 | 54 | 300 | 3.0 | 5.0 | 0.07 | 0.01 | 0.01 | 96 | 1004.7 |
| 20260506191534 | 54 | 354 | 3.0 | 3.0 | 0.07 | 0.01 | 0.01 | 96 | 1004.8 |
| 20260506191030 | 54 | 320 | 2.0 | 3.0 | 0.00 | 0.00 | 0.00 | 95 | 1004.4 |
| 20260506190527 | 54 | 29 | 3.0 | 5.0 | 0.00 | 0.00 | 0.00 | 94 | 1004.7 |
| 20260506190024 | 54 | 287 | 4.0 | 5.0 | 0.00 | 0.00 | 0.00 | 94 | 1004.8 |
| 20260506185522 | 54 | 293 | 4.0 | 5.0 | 0.00 | 0.00 | 0.00 | 93 | 1004.9 |
| 20260506185018 | 54 | 16 | 3.0 | 3.0 | 0.00 | 0.00 | 0.00 | 92 | 1004.7 |
| 20260506184515 | 54 | 32 | 3.0 | 5.0 | 0.00 | 0.00 | 0.00 | 91 | 1004.3 |
| 20260506184013 | 54 | 340 | 3.0 | 6.0 | 0.00 | 0.00 | 0.00 | 91 | 1004.4 |
| 20260506183508 | 55 | 294 | 3.0 | 5.0 | 0.00 | 0.00 | 0.00 | 91 | 1004.3 |
| 20260506183006 | 54 | 18 | 1.0 | 1.0 | 0.00 | 0.00 | 0.00 | 90 | 1004.6 |
| 20260506182502 | 55 | 239 | 3.0 | 5.0 | 0.00 | 0.00 | 0.00 | 90 | 1004.5 |
| 20260506181959 | 54 | 329 | 2.0 | 2.0 | 0.00 | 0.00 | 0.00 | 90 | 1004.7 |
| 20260506181457 | 54 | 337 | 2.0 | 2.0 | 0.00 | 0.00 | 0.00 | 90 | 1004.5 |
| 20260506180954 | 55 | 331 | 2.0 | 3.0 | 0.00 | 0.00 | 0.00 | 90 | 1004.7 |
| 20260506180451 | 55 | 327 | 2.0 | 3.0 | 0.00 | 0.00 | 0.00 | 89 | 1004.7 |
| 20260506175947 | 55 | 283 | 3.0 | 5.0 | 0.00 | 0.00 | 0.00 | 89 | 1004.7 |
| 20260506175444 | 55 | 44 | 4.0 | 7.0 | 0.00 | 0.00 | 0.00 | 89 | 1004.6 |
| 20260506174940 | 55 | 287 | 2.0 | 3.0 | 0.00 | 0.00 | 0.00 | 89 | 1004.8 |
| 20260506174438 | 55 | 309 | 2.0 | 3.0 | 0.00 | 0.00 | 0.00 | 89 | 1004.9 |
| 20260506173935 | 55 | 314 | 2.0 | 3.0 | 0.00 | 0.00 | 0.00 | 89 | 1004.7 |
| 20260506173432 | 55 | 355 | 3.0 | 3.0 | 0.00 | 0.00 | 0.00 | 89 | 1004.9 |
| 20260506172929 | 55 | 325 | 3.0 | 6.0 | 0.00 | 0.00 | 0.00 | 89 | 1005.0 |
| 20260506172426 | 55 | 311 | 3.0 | 3.0 | 0.00 | 0.00 | 0.00 | 89 | 1004.9 |
| 20260506171917 | 55 | 343 | 1.0 | 2.0 | 0.00 | 0.00 | 0.00 | 89 | 1005.0 |
| 20260506171415 | 55 | 311 | 1.0 | 1.0 | 0.00 | 0.00 | 0.00 | 89 | 1005.1 |
| 20260506170912 | 55 | 18 | 2.0 | 2.0 | 0.00 | 0.00 | 0.00 | 90 | 1005.2 |
| 20260506170407 | 55 | 338 | 2.0 | 2.0 | 0.00 | 0.00 | 0.00 | 90 | 1005.2 |
| 20260506165901 | 55 | 346 | 3.0 | 5.0 | 0.00 | 0.00 | 0.00 | 90 | 1005.4 |
| 20260506165359 | 55 | 46 | 4.0 | 7.0 | 0.00 | 0.00 | 0.00 | 89 | 1005.4 |
| 20260506164855 | 56 | 50 | 2.0 | 3.0 | 0.00 | 0.00 | 0.00 | 88 | 1005.5 |
| 20260506164352 | 56 | 316 | 1.0 | 2.0 | 0.00 | 0.00 | 0.00 | 88 | 1005.5 |
| 20260506163850 | 56 | 2 | 3.0 | 6.0 | 0.00 | 0.00 | 0.00 | 88 | 1005.8 |
| 20260506163344 | 57 | 1 | 3.0 | 6.0 | 0.00 | 0.00 | 0.00 | 88 | 1005.7 |
| 20260506162839 | 57 | 50 | 4.0 | 7.0 | 0.00 | 0.00 | 0.00 | 87 | 1006.0 |
| 20260506162338 | 58 | 54 | 2.0 | 3.0 | 0.00 | 0.00 | 0.00 | 87 | 1006.2 |
| 20260506161835 | 58 | 46 | 3.0 | 5.0 | 0.00 | 0.00 | 0.00 | 87 | 1006.3 |
| 20260506161331 | 58 | 308 | 1.0 | 2.0 | 0.00 | 0.00 | 0.00 | 87 | 1006.2 |
| 20260506160824 | 59 | 302 | 2.0 | 2.0 | 0.00 | 0.00 | 0.00 | 85 | 1006.2 |
| 20260506160320 | 58 | 299 | 3.0 | 3.0 | 0.00 | 0.00 | 0.00 | 86 | 1006.2 |
| 20260506155818 | 58 | 30 | 3.0 | 5.0 | 0.00 | 0.00 | 0.00 | 86 | 1006.6 |
| 20260506155315 | 58 | 41 | 4.0 | 6.0 | 0.00 | 0.00 | 0.00 | 87 | 1006.5 |
| 20260506153428 | 57 | 341 | 5.0 | 6.0 | 0.00 | 0.00 | 0.00 | 89 | 1006.6 |
| 20260506152925 | 57 | 46 | 5.0 | 7.0 | 0.00 | 0.00 | 0.00 | 89 | 1006.8 |
| 20260506152421 | 57 | 272 | 4.0 | 5.0 | 0.00 | 0.00 | 0.00 | 88 | 1006.7 |
| 20260506151921 | 57 | 313 | 1.0 | 2.0 | 0.00 | 0.00 | 0.00 | 89 | 1006.7 |
| 20260506151417 | 57 | 292 | 4.0 | 5.0 | 0.00 | 0.00 | 0.00 | 88 | 1006.8 |
| 20260506150915 | 57 | 315 | 0.0 | 1.0 | 0.00 | 0.00 | 0.00 | 89 | 1006.6 |
| 20260506150410 | 57 | 286 | 4.0 | 6.0 | 0.00 | 0.00 | 0.00 | 89 | 1006.7 |
| 20260506145908 | 57 | 326 | 4.0 | 6.0 | 0.00 | 0.00 | 0.00 | 88 | 1006.8 |
| 20260506145403 | 57 | 337 | 3.0 | 3.0 | 0.00 | 0.00 | 0.00 | 88 | 1006.4 |
| 20260506144901 | 58 | 5 | 3.0 | 6.0 | 0.00 | 0.00 | 0.00 | 88 | 1006.4 |
| 20260506144357 | 58 | 57 | 3.0 | 7.0 | 0.00 | 0.00 | 0.00 | 87 | 1006.4 |
| 20260506143856 | 57 | 26 | 4.0 | 5.0 | 0.00 | 0.00 | 0.00 | 89 | 1006.5 |
| 20260506143353 | 57 | 333 | 1.0 | 2.0 | 0.00 | 0.00 | 0.00 | 89 | 1006.4 |
| 20260506142851 | 57 | 303 | 4.0 | 5.0 | 0.00 | 0.00 | 0.00 | 90 | 1006.5 |
| 20260506142349 | 56 | 53 | 6.0 | 9.0 | 0.00 | 0.00 | 0.00 | 90 | 1006.5 |
| 20260506141847 | 56 | 289 | 4.0 | 5.0 | 0.00 | 0.00 | 0.00 | 90 | 1006.6 |
| 20260506141345 | 56 | 280 | 3.0 | 3.0 | 0.00 | 0.00 | 0.00 | 91 | 1006.8 |
| 20260506140843 | 56 | 317 | 2.0 | 2.0 | 0.00 | 0.00 | 0.00 | 92 | 1006.9 |
| 20260506140339 | 56 | 352 | 2.0 | 2.0 | 0.00 | 0.00 | 0.00 | 91 | 1006.8 |
| 20260506135836 | 56 | 338 | 1.0 | 2.0 | 0.00 | 0.00 | 0.00 | 91 | 1006.9 |
| 20260506135333 | 56 | 332 | 1.0 | 1.0 | 0.00 | 0.00 | 0.00 | 92 | 1006.8 |
| 20260506134829 | 56 | 326 | 0.0 | 1.0 | 0.00 | 0.00 | 0.00 | 92 | 1007.0 |
| 20260506134325 | 55 | 320 | 3.0 | 3.0 | 0.00 | 0.00 | 0.00 | 92 | 1007.0 |
| 20260506133823 | 55 | 27 | 3.0 | 3.0 | 0.00 | 0.00 | 0.00 | 93 | 1006.9 |
| 20260506133319 | 55 | 37 | 2.0 | 3.0 | 0.00 | 0.00 | 0.00 | 93 | 1007.1 |
| 20260506132816 | 55 | 43 | 5.0 | 6.0 | 0.00 | 0.00 | 0.00 | 93 | 1006.8 |
| 20260506132313 | 55 | 341 | 2.0 | 3.0 | 0.00 | 0.00 | 0.00 | 92 | 1006.9 |
| 20260506131811 | 55 | 311 | 3.0 | 3.0 | 0.00 | 0.00 | 0.00 | 92 | 1006.9 |
| 20260506131307 | 55 | 317 | 0.0 | 1.0 | 0.00 | 0.00 | 0.00 | 91 | 1006.9 |
| 20260506130804 | 55 | 321 | 0.0 | 0.0 | 0.00 | 0.00 | 0.00 | 92 | 1006.8 |
| 20260506130301 | 55 | 288 | 2.0 | 2.0 | 0.00 | 0.00 | 0.00 | 92 | 1006.8 |
| 20260506125759 | 55 | 16 | 1.0 | 2.0 | 0.00 | 0.00 | 0.00 | 92 | 1006.8 |
| 20260506125257 | 55 | 290 | 3.0 | 3.0 | 0.00 | 0.00 | 0.00 | 92 | 1006.8 |
| 20260506124755 | 55 | 44 | 2.0 | 5.0 | 0.00 | 0.00 | 0.00 | 92 | 1006.9 |
| 20260506124252 | 55 | 306 | 1.0 | 1.0 | 0.00 | 0.00 | 0.00 | 92 | 1006.9 |
| 20260506123749 | 55 | 12 | 4.0 | 6.0 | 0.00 | 0.00 | 0.00 | 92 | 1006.8 |
| 20260506123248 | 55 | 319 | 2.0 | 2.0 | 0.00 | 0.00 | 0.00 | 91 | 1006.7 |
| 20260506122744 | 55 | 299 | 1.0 | 1.0 | 0.00 | 0.00 | 0.00 | 92 | 1006.8 |
| 20260506122241 | 55 | 326 | 3.0 | 5.0 | 0.00 | 0.00 | 0.00 | 91 | 1006.8 |
| 20260506121740 | 55 | 311 | 1.0 | 1.0 | 0.00 | 0.00 | 0.00 | 91 | 1007.0 |
| 20260506121236 | 55 | 318 | 1.0 | 1.0 | 0.00 | 0.00 | 0.00 | 91 | 1006.9 |
| 20260506120733 | 55 | 321 | 0.0 | 0.0 | 0.00 | 0.00 | 0.00 | 91 | 1007.3 |
| 20260506120231 | 55 | 332 | 2.0 | 2.0 | 0.00 | 0.00 | 0.00 | 91 | 1007.1 |
| 20260506115729 | 55 | 317 | 1.0 | 1.0 | 0.00 | 0.00 | 0.00 | 92 | 1006.9 |
| 20260506115227 | 55 | 321 | 2.0 | 2.0 | 0.00 | 0.00 | 0.00 | 92 | 1007.1 |
| 20260506114724 | 55 | 329 | 1.0 | 1.0 | 0.00 | 0.00 | 0.00 | 91 | 1007.2 |
| 20260506114222 | 55 | 314 | 0.0 | 1.0 | 0.00 | 0.00 | 0.00 | 92 | 1007.2 |
| 20260506113720 | 55 | 4 | 0.0 | 1.0 | 0.00 | 0.00 | 0.00 | 92 | 1007.4 |
| 20260506113217 | 55 | 308 | 2.0 | 2.0 | 0.00 | 0.00 | 0.00 | 92 | 1007.4 |
| 20260506112713 | 54 | 323 | 0.0 | 0.0 | 0.00 | 0.00 | 0.00 | 92 | 1007.4 |
| 20260506112211 | 54 | 311 | 0.0 | 0.0 | 0.00 | 0.00 | 0.00 | 92 | 1007.5 |
| 20260506111708 | 55 | 305 | 0.0 | 1.0 | 0.00 | 0.00 | 0.00 | 92 | 1007.2 |
| 20260506111207 | 54 | 313 | 1.0 | 2.0 | 0.00 | 0.00 | 0.00 | 92 | 1007.4 |
| 20260506110703 | 54 | 324 | 1.0 | 1.0 | 0.00 | 0.00 | 0.00 | 92 | 1007.2 |
| 20260506110201 | 54 | 312 | 0.0 | 0.0 | 0.00 | 0.00 | 0.00 | 92 | 1007.1 |
| 20260506105657 | 54 | 305 | 1.0 | 1.0 | 0.00 | 0.00 | 0.00 | 92 | 1007.2 |
| 20260506105154 | 54 | 341 | 2.0 | 2.0 | 0.00 | 0.00 | 0.00 | 92 | 1007.2 |
| 20260506104652 | 54 | 324 | 0.0 | 1.0 | 0.00 | 0.00 | 0.00 | 92 | 1007.3 |
| 20260506104149 | 54 | 325 | 1.0 | 2.0 | 0.00 | 0.00 | 0.00 | 93 | 1007.2 |
| 20260506103647 | 53 | 328 | 2.0 | 2.0 | 0.00 | 0.00 | 0.00 | 93 | 1007.1 |
| 20260506103143 | 53 | 332 | 2.0 | 2.0 | 0.00 | 0.00 | 0.00 | 93 | 1007.0 |
| 20260506102642 | 53 | 353 | 2.0 | 3.0 | 0.00 | 0.00 | 0.00 | 92 | 1007.1 |
| 20260506102139 | 53 | 320 | 2.0 | 3.0 | 0.00 | 0.00 | 0.00 | 93 | 1007.3 |
| 20260506101635 | 53 | 332 | 2.0 | 2.0 | 0.00 | 0.00 | 0.00 | 93 | 1007.0 |
| 20260506101132 | 52 | 317 | 1.0 | 2.0 | 0.00 | 0.00 | 0.00 | 93 | 1007.0 |
| 20260506100631 | 52 | 336 | 1.0 | 1.0 | 0.00 | 0.00 | 0.00 | 94 | 1006.8 |
| 20260506100128 | 52 | 328 | 1.0 | 1.0 | 0.00 | 0.00 | 0.00 | 94 | 1006.9 |
| 20260506095627 | 51 | 311 | 0.0 | 1.0 | 0.00 | 0.00 | 0.00 | 94 | 1007.0 |
| 20260506095123 | 51 | 295 | 1.0 | 2.0 | 0.00 | 0.00 | 0.00 | 94 | 1007.2 |
| 20260506094621 | 51 | 319 | 0.0 | 1.0 | 0.00 | 0.00 | 0.00 | 94 | 1007.1 |
| 20260506094118 | 51 | 314 | 0.0 | 0.0 | 0.00 | 0.00 | 0.00 | 94 | 1006.9 |
| 20260506093617 | 51 | 348 | 0.0 | 2.0 | 0.00 | 0.00 | 0.00 | 94 | 1006.8 |
| 20260506093114 | 51 | 313 | 0.0 | 0.0 | 0.00 | 0.00 | 0.00 | 94 | 1006.6 |
| 20260506092612 | 51 | 357 | 3.0 | 3.0 | 0.00 | 0.00 | 0.00 | 93 | 1006.9 |
| 20260506092108 | 52 | 341 | 1.0 | 1.0 | 0.00 | 0.00 | 0.00 | 93 | 1006.8 |
| 20260506091606 | 52 | 319 | 0.0 | 1.0 | 0.00 | 0.00 | 0.00 | 93 | 1006.9 |
| 20260506091103 | 52 | 304 | 1.0 | 1.0 | 0.00 | 0.00 | 0.00 | 92 | 1006.7 |
| 20260506090601 | 52 | 319 | 0.0 | 0.0 | 0.00 | 0.00 | 0.00 | 92 | 1006.9 |
| 20260506090057 | 53 | 322 | 1.0 | 1.0 | 0.00 | 0.00 | 0.00 | 92 | 1006.9 |
| 20260506085554 | 53 | 326 | 1.0 | 2.0 | 0.00 | 0.00 | 0.00 | 92 | 1007.0 |
| 20260506085050 | 53 | 3 | 1.0 | 3.0 | 0.00 | 0.00 | 0.00 | 92 | 1006.9 |
| 20260506084547 | 53 | 328 | 2.0 | 2.0 | 0.00 | 0.00 | 0.00 | 92 | 1006.7 |
| 20260506084044 | 53 | 320 | 1.0 | 1.0 | 0.00 | 0.00 | 0.00 | 92 | 1006.6 |
| 20260506083541 | 53 | 329 | 0.0 | 1.0 | 0.00 | 0.00 | 0.00 | 91 | 1006.8 |
| 20260506083038 | 53 | 321 | 0.0 | 0.0 | 0.00 | 0.00 | 0.00 | 91 | 1006.7 |
| 20260506082535 | 53 | 336 | 1.0 | 1.0 | 0.00 | 0.00 | 0.00 | 90 | 1006.8 |
| 20260506082031 | 53 | 320 | 2.0 | 2.0 | 0.00 | 0.00 | 0.00 | 90 | 1006.6 |
| 20260506081529 | 54 | 298 | 1.0 | 2.0 | 0.00 | 0.00 | 0.00 | 90 | 1006.7 |
| 20260506081026 | 53 | 323 | 1.0 | 3.0 | 0.00 | 0.00 | 0.00 | 89 | 1006.4 |
| 20260506080524 | 54 | 347 | 1.0 | 3.0 | 0.00 | 0.00 | 0.00 | 89 | 1006.7 |
| 20260506073507 | 53 | 256 | 3.0 | 3.0 | 0.00 | 0.00 | 0.00 | 88 | 1006.8 |
| 20260506073004 | 53 | 328 | 2.0 | 2.0 | 0.00 | 0.00 | 0.00 | 88 | 1006.5 |
| 20260506072501 | 53 | 325 | 0.0 | 1.0 | 0.00 | 0.00 | 0.00 | 88 | 1006.5 |
| 20260506071959 | 53 | 347 | 1.0 | 2.0 | 0.00 | 0.00 | 0.00 | 89 | 1006.5 |
| 20260506071457 | 53 | 338 | 2.0 | 3.0 | 0.00 | 0.00 | 0.00 | 89 | 1006.2 |
| 20260506070954 | 53 | 321 | 1.0 | 1.0 | 0.00 | 0.00 | 0.00 | 89 | 1006.5 |
| 20260506070451 | 53 | 321 | 0.0 | 1.0 | 0.00 | 0.00 | 0.00 | 89 | 1006.4 |
| 20260506062428 | 52 | 354 | 3.0 | 5.0 | 0.00 | 0.00 | 0.00 | 89 | 1006.2 |
| 20260506061924 | 53 | 337 | 2.0 | 7.0 | 0.00 | 0.00 | 0.00 | 88 | 1006.3 |
| 20260506061421 | 53 | 307 | 4.0 | 5.0 | 0.00 | 0.00 | 0.00 | 88 | 1006.2 |
| 20260506060919 | 53 | 241 | 3.0 | 3.0 | 0.00 | 0.00 | 0.00 | 88 | 1006.2 |
| 20260506060417 | 53 | 354 | 1.0 | 2.0 | 0.00 | 0.00 | 0.00 | 87 | 1006.1 |
| 20260506051348 | 55 | 46 | 3.0 | 6.0 | 0.00 | 0.00 | 0.00 | 84 | 1006.2 |
| 20260506050846 | 55 | 338 | 0.0 | 1.0 | 0.00 | 0.00 | 0.00 | 85 | 1006.3 |
| 20260506050343 | 54 | 336 | 0.0 | 1.0 | 0.00 | 0.00 | 0.00 | 85 | 1006.2 |
| 20260506044833 | 54 | 310 | 3.0 | 3.0 | 0.00 | 0.00 | 0.00 | 85 | 1006.4 |
| 20260506044331 | 55 | 310 | 0.0 | 0.0 | 0.00 | 0.00 | 0.00 | 85 | 1006.4 |
| 20260506043828 | 55 | 350 | 1.0 | 2.0 | 0.00 | 0.00 | 0.00 | 85 | 1006.2 |
| 20260506043326 | 55 | 41 | 2.0 | 5.0 | 0.00 | 0.00 | 0.00 | 84 | 1006.2 |
| 20260506042824 | 55 | 34 | 2.0 | 2.0 | 0.00 | 0.00 | 0.00 | 84 | 1006.1 |
| 20260506042323 | 55 | 319 | 0.0 | 1.0 | 0.00 | 0.00 | 0.00 | 84 | 1006.3 |
| 20260506041821 | 55 | 333 | 2.0 | 3.0 | 0.00 | 0.00 | 0.00 | 84 | 1005.9 |
| 20260506041317 | 55 | 353 | 3.0 | 5.0 | 0.00 | 0.00 | 0.00 | 84 | 1006.1 |
| 20260506040815 | 55 | 336 | 1.0 | 2.0 | 0.00 | 0.00 | 0.00 | 84 | 1006.2 |
| 20260506040312 | 55 | 323 | 1.0 | 2.0 | 0.00 | 0.00 | 0.00 | 84 | 1005.9 |
| 20260506035808 | 56 | 350 | 1.0 | 2.0 | 0.00 | 0.00 | 0.00 | 84 | 1005.9 |
| 20260506035306 | 56 | 315 | 1.0 | 2.0 | 0.00 | 0.00 | 0.00 | 84 | 1006.0 |
| 20260506034803 | 55 | 309 | 2.0 | 3.0 | 0.00 | 0.00 | 0.00 | 84 | 1006.1 |
| 20260506034300 | 55 | 316 | 1.0 | 1.0 | 0.00 | 0.00 | 0.00 | 84 | 1005.9 |
| 20260506033757 | 55 | 327 | 2.0 | 2.0 | 0.00 | 0.00 | 0.00 | 84 | 1005.9 |
| 20260506033253 | 55 | 325 | 1.0 | 2.0 | 0.00 | 0.00 | 0.00 | 84 | 1005.9 |
| 20260506032750 | 55 | 314 | 1.0 | 1.0 | 0.00 | 0.00 | 0.00 | 84 | 1006.1 |
| 20260506032247 | 55 | 326 | 2.0 | 2.0 | 0.00 | 0.00 | 0.00 | 85 | 1005.9 |
| 20260506031744 | 54 | 314 | 0.0 | 0.0 | 0.00 | 0.00 | 0.00 | 86 | 1005.9 |
| 20260506031241 | 54 | 311 | 1.0 | 1.0 | 0.00 | 0.00 | 0.00 | 86 | 1005.8 |
| 20260506030739 | 54 | 320 | 1.0 | 1.0 | 0.00 | 0.00 | 0.00 | 86 | 1006.0 |
| 20260506030237 | 54 | 311 | 1.0 | 2.0 | 0.00 | 0.00 | 0.00 | 86 | 1006.1 |
| 20260506025733 | 55 | 311 | 0.0 | 1.0 | 0.00 | 0.00 | 0.00 | 85 | 1006.1 |
| 20260506025230 | 55 | 310 | 0.0 | 1.0 | 0.00 | 0.00 | 0.00 | 85 | 1006.0 |
| 20260506024727 | 55 | 314 | 0.0 | 0.0 | 0.00 | 0.00 | 0.00 | 84 | 1006.1 |
| 20260506024224 | 55 | 314 | 0.0 | 0.0 | 0.00 | 0.00 | 0.00 | 84 | 1006.2 |
| 20260506023720 | 55 | 308 | 0.0 | 1.0 | 0.00 | 0.00 | 0.00 | 84 | 1006.1 |
| 20260506023217 | 55 | 311 | 1.0 | 1.0 | 0.00 | 0.00 | 0.00 | 84 | 1005.8 |
| 20260506022714 | 55 | 311 | 0.0 | 0.0 | 0.00 | 0.00 | 0.00 | 83 | 1006.0 |
| 20260506022212 | 56 | 311 | 0.0 | 0.0 | 0.00 | 0.00 | 0.00 | 82 | 1006.2 |
| 20260506021710 | 56 | 314 | 0.0 | 0.0 | 0.00 | 0.00 | 0.00 | 81 | 1006.1 |
| 20260506021206 | 56 | 308 | 0.0 | 0.0 | 0.00 | 0.00 | 0.00 | 81 | 1006.4 |
| 20260506020703 | 56 | 326 | 1.0 | 1.0 | 0.00 | 0.00 | 0.00 | 81 | 1006.3 |
| 20260506020201 | 57 | 304 | 1.0 | 1.0 | 0.00 | 0.00 | 0.00 | 81 | 1006.1 |
| 20260506015658 | 57 | 309 | 1.0 | 1.0 | 0.00 | 0.00 | 0.00 | 81 | 1006.2 |
| 20260506015156 | 57 | 310 | 1.0 | 1.0 | 0.00 | 0.00 | 0.00 | 80 | 1006.1 |
| 20260506014653 | 57 | 310 | 0.0 | 1.0 | 0.00 | 0.00 | 0.00 | 80 | 1006.2 |
| 20260506014148 | 58 | 308 | 1.0 | 1.0 | 0.00 | 0.00 | 0.00 | 79 | 1006.4 |
| 20260506013646 | 58 | 311 | 1.0 | 1.0 | 0.00 | 0.00 | 0.00 | 79 | 1006.1 |
| 20260506013143 | 58 | 310 | 1.0 | 1.0 | 0.00 | 0.00 | 0.00 | 78 | 1006.0 |
| 20260506012639 | 58 | 320 | 0.0 | 1.0 | 0.00 | 0.00 | 0.00 | 78 | 1006.4 |
| 20260506012136 | 58 | 313 | 0.0 | 0.0 | 0.00 | 0.00 | 0.00 | 78 | 1006.2 |
| 20260506011634 | 59 | 307 | 2.0 | 2.0 | 0.00 | 0.00 | 0.00 | 78 | 1006.2 |
| 20260506011130 | 59 | 309 | 0.0 | 1.0 | 0.00 | 0.00 | 0.00 | 77 | 1005.8 |
| 20260506010629 | 59 | 313 | 0.0 | 1.0 | 0.00 | 0.00 | 0.00 | 77 | 1005.9 |
| 20260506010125 | 59 | 298 | 2.0 | 2.0 | 0.00 | 0.00 | 0.00 | 77 | 1005.8 |
| 20260506005622 | 60 | 308 | 1.0 | 1.0 | 0.00 | 0.00 | 0.00 | 76 | 1005.7 |
| 20260506005119 | 61 | 300 | 1.0 | 2.0 | 0.00 | 0.00 | 0.00 | 75 | 1005.9 |
| 20260506004615 | 61 | 313 | 0.0 | 0.0 | 0.00 | 0.00 | 0.00 | 73 | 1005.8 |
| 20260506004112 | 61 | 319 | 1.0 | 1.0 | 0.00 | 0.00 | 0.00 | 73 | 1005.6 |
| 20260506003609 | 61 | 316 | 0.0 | 0.0 | 0.00 | 0.00 | 0.00 | 73 | 1005.6 |
| 20260506003105 | 61 | 309 | 1.0 | 1.0 | 0.00 | 0.00 | 0.00 | 73 | 1005.6 |
| 20260506002601 | 62 | 308 | 1.0 | 1.0 | 0.00 | 0.00 | 0.00 | 73 | 1005.5 |
| 20260506002057 | 62 | 312 | 1.0 | 1.0 | 0.00 | 0.00 | 0.00 | 71 | 1005.5 |
| 20260506001553 | 62 | 319 | 1.0 | 2.0 | 0.00 | 0.00 | 0.00 | 71 | 1005.4 |
| 20260506001051 | 63 | 321 | 0.0 | 1.0 | 0.00 | 0.00 | 0.00 | 70 | 1005.2 |
| 20260506000548 | 63 | 343 | 1.0 | 2.0 | 0.00 | 0.00 | 0.00 | 70 | 1005.0 |
| 20260506000045 | 63 | 338 | 2.0 | 3.0 | 0.00 | 0.00 | 0.00 | 71 | 1004.7 |
| 20260505235543 | 62 | 306 | 2.0 | 2.0 | 0.00 | 0.00 | 0.00 | 72 | 1004.4 |
| 20260505235040 | 62 | 313 | 0.0 | 0.0 | 0.00 | 0.00 | 0.00 | 73 | 1004.3 |
| 20260505234537 | 62 | 308 | 0.0 | 0.0 | 0.00 | 0.00 | 0.00 | 73 | 1004.3 |
| 20260505234033 | 63 | 308 | 0.0 | 0.0 | 0.00 | 0.00 | 0.00 | 72 | 1004.4 |
| 20260505233531 | 63 | 304 | 0.0 | 0.0 | 0.00 | 0.00 | 0.00 | 72 | 1004.3 |
| 20260505233028 | 64 | 310 | 0.0 | 0.0 | 0.00 | 0.00 | 0.00 | 70 | 1004.2 |
| 20260505232526 | 62 | 308 | 0.0 | 0.0 | 0.00 | 0.00 | 0.00 | 71 | 1004.3 |